POLYITAN-2-SAU (42732 NORAD) Tracking and Keplerian Element Data

This shows tracking and keplerian element data for the satellite.

Feedback or suggestion? Click here.




ElementValue
Catalog42732
NamePOLYITAN-2-SAU
Epoch Orbit8908
Epoch Day349.66881644
Epoch Year2018
RAAN136.6349
Inclination51.627
Eccentricity0.0003271
Argument of Perigee218.2303
Mean Anonmoly141.8471
Mean Motion15.91290807
Decay Rate0.00114261
L11 42732U 98067MM 18349.66881644 .00114261 15981-4 35829-3 0 9999
L22 42732 51.6270 136.6349 0003271 218.2303 141.8471 15.91290807 89088

Live tracking and technical data element details for POLYITAN-2-SAU (NORAD 42732). POLYITAN-2-SAU can be tracked NOW for your location showing map with azimuth and elevation plus other details from your city location.

Track the satellite on the map from your city or location and see movement details for azimuth, elevation, latitude, longitude, range, height, and movement on the map or in text.







IsCatalogInMostPopularTable: catalog: 42732, numindb: 154
Update: records affected: 1



GetName: 42732 POLYITAN-2-SAU

Hit Count: updated at: Sun, 16 Dec 2018 09:57:13 GMT